Location: Gravenhurst
(44.9196°N, 79.3742°W)
Time: 17:29:08
(UTC-05:00)

N. Korean satellite - Pass Details

Date: 24 October 2019
Orbit: 456 x 506 km, 97.2° (Epoch: 14 November)

Event Time Altitude Azimuth Distance (km) Brightness Sun altitude
Rises 06:56:01 0° 17° (NNE) 2,572 10.4 -9.3°
Reaches altitude 10° 06:58:08 10° 23° (NNE) 1,694 9.5 -8.9°
Maximum altitude 07:01:41 49° 99° (E) 652 7.8 -8.3°
Drops below altitude 10° 07:05:15 10° 175° (S) 1,702 9.5 -7.6°
Sets 07:07:22 0° 181° (S) 2,585 10.4 -7.3°
